EHI
0 0 0 0 0 0 0 0 0 0 0 0 0 0 0 0 0 0 0 0 0 0 0 0 0 0 0 0 0 0 0 0 0 0 0 0 0 0 0 0 0 0 0
0 0 0 0 0 0 0 0 0 0 0 0 0 0 0 0 0 0 0 0 0 0 0 0 0 0 0 0 0 0 0 0 0 0 0 0 0 0 0 0 0 0 0
0 0 0 0 0 0 0 0 0 0 0 0 0 0 0 0 0 0 0 0 0 0 0 0 0 0 0 0 0 0 0 0 0 0 0 0 0 0 0 0 0 0 0
0 0 0 0 0 0 0 0 0 0 0 0 0 0 0 0 0 0 0 0 0 0 0 0 0 0 0 0 0 0 0 0 0 0 0 0 0 0 0 0 0 0 0
0 0 0 0 0 0 0 0 0 0 0 0 0 0 0 0 0 0 0 0 0 0 0 0 0 0 0 0 0 0 0 0 0 0 0 0 0 0 0 0 0 0 0
0 0 0 0 0 0 0 0 0 0 0 0 0 0 0 0 0 0 0 0 0 0 0 0 0 0 0 0 0 0 0 0 0 0 0 0 0 0 0 0 0 0 0
0 0 0 0 0 0 0 0 0 0 0 0 0 0 0 0 0 0 0 0 0 0 0 0 0 0 0 0 0 0 0 0 0 0 0 0 0 0 0 0 0 0 0
0 0 0 0 0 0 0 0 0 0 0 0 0 0 0 0 0 0 0 0 0 0 0 0 0 0 0 0 0 0 0 0 0 0 0 0 0 0 0 0 0 0 0
0 0 0 0 0 0 0 0 0 0 0 0 0 0 0 0 0 0 0 0 0 0 0 0 0 0 0 0 0 0 0 0 0 0 0 0 0 0 0 0 0 0 0
0 0 0 0 0 0 0 0 0 0 0 0 0 0 0 0 0 0 0 0 0 0 0 0 0 0 0 0 0 0 0 0 0 0 0 0 0 0 0 0 0 0 0
0 0 0 0 0 0 0 0 0 0 0 0 0 0 0 0 0 0 0 0 0 0 0 0 0 0 0 0 0 0 0 0 0 0 0 0 0 0 0 0 0 0 0
0 0 0 0 0 0 0 0 0 0 0 0 0 0 0 0 0 0 0 0 0 0 0 0 0 0 0 0 0 0 0 0 0 0 0 0 0 0 0 0 0 0 0
0 0 0 0 0 0 0 0 0 0 0 0 0 0 0 0 0 0 0 0 0 0 0 0 0 0 0 0 0 0 0 0 0 0 0 0 0 0 0 0 0 0 0
0 0 0 0 0 0 0 0 0 0 0 0 0 0 0 0 0 0 0 0 0 0 0 0 0 0 0 0 0 0 0 0 0 0 0 0 0 0 0 0 0 0 0
0 0 0 0 0 0 0 0 0 0 0 0 0 0 0 0 0 0 0 0 0 0 0 0 0 0 0 0 0 0 0 0 0 0 0 0 0 0 0 0 0 0 0
0 0 0 0 0 0 0 0 0 0 0 0 0 0 0 0 0 0 0 0 0 0 0 0 0 0 0 0 0 0 0 0 0 0 0 0 0 0 0 0 0 0 0
0 0 0 0 0 0 0 0 0 0 0 0 0 0 0 0 0 0 0 0 0 0 0 0 0 0 0 0 0 0 0 0 0 0 0 0 0 0 0 0 0 0 0
0 0 0 0 0 0 0 0 0 0 0 0 0 0 0 0 0 0 0 0 0 0 0 0 0 0 0 0 0 0 0 0 0 0 0 0 0 0 0 0 0 0 0
0 0 0 0 0 0 0 0 0 0 0 0 0 0 0 0 0 0 0 0 0 0 0 0 0 0 0 0 0 0 0 0 0 0 0 0 0 0 0 0 0 0 0
0 0 0 0 0 0 0 0 0 0 0 0 0 0 0 0 0 0 0 0 0 0 0 0 0 0 0 0 0 0 0 0 0 0 0 0 0 0 0 0 0 0 0
0 0 0 0 0 0 0 0 0 0 0 0 0 0 0 0 0 0 0 0 0 0 0 0 0 0 0 0 0 0 0 0 0 0 0 0 0 0 0 0 0 0 0
0 0 0 0 0 0 0 0 0 0 0 0 0 0 0 0 0 0 0 0 0 0 0 0 0 0 0 0 0 0 0 0 0 0 0 0 0 0 0 0 0 0 0
0 0 0 0 0 0 0 0 0 0 0 0 0 0 0 0 0 0 0 0 0 0 0 0 0 0 0 0 0 0 0 0 0 0 0 0 0 0 0 0 0 0 0
0 0 0 0 0 0 0 0 0 0 0 0 0 0 0 0 0 0 0 0 0 0 0 0 0 0 0 0 0 0 0 0 0 0 0 0 0 0 0 0 0 0 0
0 0 0 0 0 0 0 0 0 0 0 0 0 0 0 0 0 0 0 0 0 0 0 0 0 0 0 0 0 0 0 0 0 0 0 0 0 0 0 0 0 0 0
0 0 0 0 0 0 0 0 0 0 0 0 0 0 0 0 0 0 0 0 0 0 0 0 0 0 0 0 0 0 0 0 0 0 0 0 0 0 0 0 0 0 0
Wind_Speed
3 4 4 4 5 5 5 6 6 6 6 6 6 6 6 6 6 5 6 6 6 6 6 6 6 5 4 3 3 3 4 3 4 2 1 1 2 5 5 5 5 5 4
4 4 4 5 5 5 6 7 6 7 6 7 6 7 7 7 6 6 7 7 6 7 7 6 7 5 5 4 3 4 4 4 4 3 1 1 2 5 6 6 5 5 4
4 4 5 5 6 6 7 7 7 7 7 7 7 7 8 8 7 7 7 7 7 8 7 7 7 7 7 5 5 4 4 4 4 3 2 2 2 4 6 6 6 4 5
4 4 6 6 7 7 7 7 7 7 7 7 7 8 8 8 8 8 8 8 8 8 8 8 8 8 8 7 6 6 5 4 4 3 3 3 3 4 5 6 5 3 4
4 5 6 7 6 7 7 7 7 7 8 7 7 8 8 7 8 9 8 9 8 8 7 7 8 11 12 10 7 6 5 4 4 4 4 4 5 6 6 4 6 5 3
5 6 7 6 6 7 7 7 7 7 7 7 8 8 9 9 11 13 10 7 7 7 7 7 8 10 12 15 14 12 10 7 6 5 5 6 6 6 5 7 7 6 4
6 6 6 6 7 7 8 7 8 8 7 8 8 8 9 11 15 16 17 10 8 8 8 7 8 8 9 7 11 14 13 12 10 7 6 6 6 7 9 10 8 6 4
6 6 7 7 8 8 8 8 8 7 7 7 8 8 9 11 14 15 16 11 8 9 9 9 8 7 7 7 7 7 7 8 10 7 6 6 5 6 9 9 9 6 5
6 7 7 7 8 9 9 9 8 8 8 8 8 8 9 11 13 14 13 6 7 9 9 9 9 8 11 11 7 7 6 6 8 10 8 7 8 9 8 8 10 9 6
7 7 7 7 8 9 10 9 8 7 8 8 8 8 8 9 11 13 12 5 7 7 7 8 12 11 12 13 8 8 8 6 6 6 6 7 7 8 12 11 11 10 8
7 7 8 8 8 9 8 7 8 8 8 7 8 8 7 8 10 11 10 5 6 6 5 5 6 12 14 14 11 8 10 8 6 6 5 5 5 5 7 8 8 9 9
6 7 8 8 8 8 8 8 8 7 7 7 6 7 5 6 6 7 9 8 7 5 5 5 6 11 13 13 10 9 11 9 4 4 5 5 5 6 6 7 8 7 6
6 8 8 9 8 7 7 8 7 6 5 5 5 5 5 4 4 6 7 6 7 4 4 6 7 9 10 8 10 11 10 6 5 4 5 5 5 6 6 6 6 6 6
7 8 8 8 9 9 6 5 6 6 5 5 4 4 5 4 4 3 3 2 2 3 2 2 4 6 5 6 6 6 5 5 5 5 5 4 4 4 5 6 6 7 6
7 7 8 7 8 8 7 6 6 6 5 5 4 4 4 5 5 6 4 2 2 2 2 1 2 3 3 3 3 3 3 4 4 4 4 3 4 4 4 5 5 6 6
6 7 6 6 7 6 7 8 8 8 9 8 7 6 5 7 8 7 5 4 4 5 3 2 2 3 4 4 5 4 4 4 4 4 4 4 4 5 5 5 6 7 7
6 7 6 6 6 6 6 6 7 8 6 5 6 7 7 7 7 6 5 3 2 4 2 2 3 3 3 4 4 4 5 5 4 4 4 4 4 4 5 6 7 7 7
7 8 7 6 6 6 6 6 5 5 6 5 4 6 6 6 6 5 4 2 0 1 2 3 3 3 4 4 4 4 4 4 4 4 4 4 5 4 5 6 7 7 7
6 6 6 6 6 6 5 5 5 5 5 4 3 3 4 4 5 5 3 2 2 2 3 3 3 4 4 4 4 4 4 4 5 5 5 5 5 5 5 6 6 9 8
6 11 10 6 6 5 5 5 5 4 4 4 4 3 1 1 2 2 2 3 3 3 3 3 3 3 4 4 4 4 4 4 5 5 5 5 5 6 7 8 7 8 7
5 8 11 8 5 5 5 5 4 4 4 4 4 4 3 2 3 4 3 3 4 4 3 3 3 3 3 3 4 5 5 4 4 5 5 5 6 6 6 7 8 8 7
5 5 6 6 5 5 5 5 4 4 4 5 4 3 4 2 3 3 3 3 3 3 3 3 3 3 3 4 4 4 5 5 5 5 5 5 6 6 6 7 8 8 8
5 6 6 6 5 6 5 5 4 4 4 4 4 3 3 3 3 3 2 2 2 2 2 2 2 2 2 3 4 5 5 5 5 6 6 6 6 7 7 7 9 10 9
5 6 6 5 4 4 4 5 4 4 4 4 4 3 3 3 3 3 2 2 1 1 1 1 1 2 2 2 2 3 3 4 5 5 8 7 7 7 7 8 8 10 10
4 5 4 4 4 4 4 4 5 5 5 4 4 4 3 3 2 2 2 1 1 1 1 1 0 0 1 1 2 2 3 5 5 5 6 6 8 8 8 9 8 9 9
4 4 4 4 4 4 4 4 5 5 4 4 4 4 4 3 3 2 2 1 1 1 2 1 1 2 2 2 3 3 3 4 5 6 5 6 7 7 8 7 10 10 11
Wind_Direction
282 278 283 280 277 276 270 268 268 268 269 270 271 274 275 272 266 258 253 255 250 251 247 238 238 232 231 224 216 209 201 194 229 250 230 126 122 132 121 110 105 102 108
271 278 279 278 279 277 272 269 266 265 264 261 262 265 267 270 263 256 257 259 247 248 247 239 239 235 230 223 213 218 212 200 207 229 207 163 131 142 136 127 117 109 101
275 280 283 283 280 275 272 271 268 264 264 262 258 258 260 261 260 255 250 250 244 240 239 235 235 227 230 223 213 216 217 214 197 197 200 172 131 139 135 122 113 104 102
277 281 282 279 275 272 273 272 269 265 264 262 259 255 254 254 255 255 253 250 247 242 236 232 230 221 221 220 218 213 211 208 194 189 185 174 154 145 142 139 129 113 109
282 283 280 279 279 280 280 278 275 270 271 263 262 261 257 255 256 253 249 253 248 247 244 235 232 231 225 214 213 206 200 199 193 187 190 180 171 162 162 151 142 129 98
281 282 283 287 288 287 284 282 279 275 271 268 264 263 261 265 267 263 257 251 244 241 244 241 242 244 239 224 218 209 196 192 193 189 194 189 188 172 160 155 148 151 148
287 288 290 289 289 286 289 290 282 278 273 271 267 262 260 261 262 262 261 254 241 237 233 231 243 242 229 219 218 217 211 205 196 189 193 198 187 181 170 166 167 164 150
294 294 296 295 293 291 289 285 282 277 274 270 269 266 263 266 263 260 259 255 243 237 232 224 224 232 227 211 206 205 207 208 204 197 194 196 189 183 182 172 160 140 113
299 298 299 299 298 297 294 289 286 282 279 273 270 268 266 269 267 263 259 249 240 238 233 228 220 219 220 208 194 195 203 215 215 205 198 196 189 187 178 164 160 160 152
294 295 297 297 297 296 292 287 285 280 277 279 278 273 268 269 271 270 264 241 236 237 235 233 227 218 214 203 189 188 199 205 194 195 201 202 197 194 189 184 175 172 159
291 297 299 297 295 292 288 286 287 286 284 283 283 283 278 274 277 276 272 237 226 228 228 228 226 220 214 205 192 190 198 189 182 182 185 189 187 192 195 193 186 176 169
296 299 300 298 298 304 296 295 293 289 289 289 289 292 288 288 284 287 279 250 228 219 226 225 219 216 209 201 195 196 190 178 163 168 179 187 192 194 195 192 191 186 172
304 302 300 301 299 294 291 294 299 295 286 288 290 292 297 299 302 309 302 273 237 219 227 225 213 206 197 193 195 188 178 168 161 170 188 194 195 191 183 183 181 165 138
302 301 301 303 304 303 297 290 292 293 289 287 288 289 295 299 304 317 317 296 260 236 234 215 187 174 165 163 165 173 170 168 169 177 186 188 175 175 184 174 170 162 145
302 300 303 300 299 302 299 292 288 277 264 265 272 273 286 296 297 304 294 284 241 214 167 134 126 135 148 154 152 157 166 167 171 169 173 172 173 179 183 171 162 159 157
305 305 302 302 302 300 302 307 299 287 287 266 253 256 265 270 296 306 305 292 254 202 176 168 172 170 173 172 169 173 180 187 182 173 174 176 178 182 179 170 168 168 162
297 299 299 299 301 302 303 304 310 313 305 281 265 260 260 280 291 299 314 322 263 183 181 187 185 190 190 182 180 180 187 191 178 174 179 182 176 174 171 173 172 168 163
299 299 301 296 298 299 298 296 294 300 309 308 282 263 263 272 285 296 311 332 266 201 201 200 204 201 197 193 188 190 191 180 177 183 186 182 176 172 172 174 171 168 163
302 300 301 299 299 298 300 301 299 300 299 296 295 290 262 263 278 283 279 248 237 227 219 216 213 203 198 194 190 187 185 182 183 182 185 183 177 172 175 173 167 164 158
302 306 311 304 302 305 306 307 305 304 306 305 295 283 267 248 272 267 241 243 247 244 233 225 222 212 201 194 190 186 186 186 183 183 183 182 178 176 175 169 167 169 168
303 308 312 311 303 301 303 304 303 302 304 305 296 280 256 245 263 262 250 242 238 239 233 228 223 213 204 194 188 186 187 193 187 180 178 178 176 174 173 170 170 171 166
300 300 301 300 301 305 306 302 302 304 306 307 303 302 293 274 274 272 263 259 247 235 229 223 222 214 201 194 188 183 184 187 186 181 177 175 175 172 168 169 169 169 167
301 303 304 302 302 311 319 318 315 312 313 311 309 306 301 295 291 285 277 275 267 252 243 224 221 228 221 200 188 184 187 193 193 184 175 173 173 172 169 170 169 168 169
298 299 303 306 309 314 317 320 323 324 324 320 318 315 308 303 306 305 297 294 294 285 263 229 212 216 215 198 191 189 194 192 182 181 175 172 172 170 168 169 171 172 171
298 303 310 310 313 316 317 320 326 330 333 329 327 326 326 324 323 320 318 320 341 6 19 42 89 158 180 184 172 166 178 182 178 171 169 169 168 168 167 169 170 167 164
307 313 320 322 323 324 325 326 327 333 337 340 343 345 343 341 342 342 339 340 14 28 26 33 64 90 85 78 93 117 143 155 161 164 163 161 164 166 164 168 169 167 165